IRIDIUM 98 [S]

Last updated on Fri Jul 15 2016 17:38:29 GMT+0000 (Coordinated Universal Time)

1 27451U 02031B 16197.44813713 .00000129 00000-0 39037-4 0 9998 2 27451 86.3981 162.9878 0002215 88.0368 24.2481 14.34217993743031
UTC large
Height (km)
Speed (km/s)
/
Latitude / Longitude
Inclination (degrees)
Orbital Period (minutes)
Azimuth
Elevation
Range (km)
Doppler Factor

Next 0 passes for location: London (51.5072 / 0.1276)

Sorry there are no passes over London.